CAPE
131 520 806 1248 1289 1317 1096 750 803 739 1446 1580 1479 1496 1421 1341 1390 1444 1592 1681 2099 2047 1960 2006 1918 1775 1759 1748 1554 1752 1608 1723 1842 1500 1353 1493 1295 1102 1366 1594 1130 1212 1294
249 709 586 1275 1390 1499 1249 1050 1043 865 988 1400 1625 1379 1421 1322 1488 1767 1717 1667 1907 1905 1939 1417 1467 1535 1745 1913 1526 1557 1340 1457 1443 1443 1340 1324 1104 1220 1073 1384 1234 1262 1350
511 879 906 1306 1419 1452 1454 1719 1669 1438 1456 1649 1177 1454 1300 835 693 1206 1704 1964 1874 1437 1155 2123 1700 1878 1463 1503 1521 1357 1004 992 998 1055 1047 933 1572 1219 1603 1588 1333 1053 738
589 924 1123 1173 1409 1395 1654 1443 1680 1616 1605 1390 1708 1480 1672 1559 1837 704 1347 1697 1662 1433 1798 1572 1553 1062 1219 1506 1581 1376 1176 1007 1076 963 1058 628 978 1098 972 1246 1228 858 1109
422 677 1221 1532 1456 890 974 1382 1484 1743 2003 1866 1722 1746 1290 794 1746 1408 949 1327 1950 1635 1088 1358 1273 1348 1068 866 941 1064 1060 844 970 1133 1286 825 659 1040 1148 1097 1370 777 778
471 726 1417 998 1004 1227 1176 1482 1696 1841 1880 1418 979 342 254 534 964 995 1348 1438 1360 1342 1685 1671 1521 986 768 659 746 990 559 433 569 930 1070 1081 835 1345 1126 1001 1476 1425 918
653 898 778 1398 1568 1434 1610 1524 845 749 827 455 791 1849 1684 948 1098 1345 1480 1659 1722 1728 1614 1340 1067 821 655 629 678 671 707 1056 1219 270 457 706 426 998 1630 1492 1398 1264 1346
341 588 1509 1548 1497 1574 1734 2164 1351 485 589 728 1968 2103 1239 1698 1885 1758 1336 1390 1526 1388 1294 1053 882 695 472 687 757 555 712 671 977 674 564 463 234 120 1734 2007 1374 593 542
426 1020 1480 1360 1640 1545 1487 1787 1503 862 648 942 1801 1575 1419 870 433 570 740 824 871 822 796 816 935 1050 1072 1014 972 830 795 1109 1226 653 648 377 18 149 1322 1671 1434 660 111
583 932 1031 1422 1728 1715 1877 2040 2279 913 602 581 868 981 1156 1260 1141 1017 881 902 1071 1257 1222 1045 1077 1083 930 922 1123 1351 1589 1625 518 547 23 52 230 322 814 1268 1301 821 481
582 683 865 1115 1343 1379 1481 1886 1770 1319 1139 993 743 523 627 841 876 851 825 635 825 1054 1132 1336 1297 833 826 1078 1146 1431 1334 1387 698 741 59 354 525 592 1046 728 905 937 1050
418 675 696 452 698 883 900 1100 779 906 1097 1230 825 1174 1149 1256 1181 1154 1225 1289 1195 1342 1157 1214 1095 1106 1361 1091 901 1198 660 1096 1179 669 431 41 1 635 607 569 731 836 960
460 730 792 713 804 728 149 247 172 542 963 1124 1094 1034 909 1200 1307 1457 1232 79 812 1319 1415 1460 1496 1219 1020 867 760 804 572 451 1097 951 884 710 596 910 627 773 641 585 789
419 536 811 890 831 479 211 31 152 415 780 1108 1383 1375 1215 1069 1008 1163 1027 994 1256 1441 1397 1502 1110 827 743 679 670 578 505 495 219 303 702 1091 971 840 893 702 804 738 628
293 365 727 872 902 477 263 369 663 773 834 1014 1265 881 1026 1084 1099 1309 1192 1512 1466 1497 1312 1104 616 557 863 819 522 321 383 30 0 0 200 977 906 901 1022 986 940 863 846
335 370 629 667 886 918 540 599 1166 1032 990 1037 1044 357 543 768 1230 1264 1217 1307 1240 982 1117 493 762 1135 666 274 92 83 7 0 0 0 2 209 693 681 915 1129 1225 1071 1080
291 350 463 553 816 844 876 1542 1378 1029 858 961 656 347 404 615 923 1096 941 1014 856 657 647 1125 999 418 69 33 24 105 0 0 0 0 0 0 0 48 370 691 1229 1229 1304
230 336 500 616 486 570 693 1265 1345 1155 964 470 99 370 596 1040 935 1195 826 1304 1387 491 724 576 523 168 53 15 28 0 0 0 0 0 0 0 2 3 162 561 724 767 1250
266 427 505 571 475 412 547 870 1087 1051 826 624 467 589 668 1281 874 1211 738 1080 571 717 889 859 844 593 333 22 0 0 0 0 23 11 0 0 3 1 0 10 116 391 655
312 435 493 576 519 461 445 494 854 694 483 472 331 426 1021 1266 1044 1362 1195 1186 870 925 1045 1325 1233 1026 485 21 0 0 0 1 0 0 0 0 0 0 0 0 66 383 385
324 414 373 405 454 478 363 10 47 155 295 274 158 295 1071 1363 1225 816 971 873 1149 1224 1429 1440 1456 1201 870 23 0 0 0 0 0 0 0 0 0 0 0 0 0 0 0
285 426 247 315 406 475 448 409 237 138 349 261 283 530 850 1248 1536 860 810 888 915 1082 1825 1793 1631 1130 847 32 0 0 0 0 0 0 0 0 0 0 0 0 0 0 0
247 282 439 410 406 462 436 503 663 661 633 516 834 865 912 1171 1385 1105 1285 1090 896 1110 1500 1758 1543 1215 1014 51 0 0 11 4 1 0 0 0 0 0 0 0 0 0 0
494 394 524 703 735 512 648 581 734 883 766 542 590 974 1095 1143 1474 1220 1322 1262 1184 1402 1844 1792 1666 1301 619 388 0 45 8 0 0 0 0 0 0 0 0 0 0 0 0
704 660 688 749 1161 1154 960 973 949 1052 933 1095 1197 1088 1081 1448 1639 1470 1300 1383 1554 1684 1761 1843 1787 1272 510 255 74 72 4 18 0 0 0 0 0 0 0 0 0 0 0
855 897 776 779 891 1252 1284 1245 1139 1094 974 808 1087 1228 1201 1040 1595 1441 1465 1638 1755 1774 1947 2016 1633 1097 748 258 155 149 226 11 0 0 0 0 0 0 0 0 0 0 0
CIN
-15 -1 -2 0 0 0 -16 -37 -35 -45 -21 -18 -24 -28 -35 -40 -31 -22 -14 0 0 0 0 0 0 0 0 -2 0 0 -7 0 0 -6 -13 -6 -12 -16 -3 0 0 0 0
-8 -1 -6 -1 0 0 -10 -26 -32 -45 -44 -29 -26 -35 -34 -35 -12 0 -1 0 0 0 0 -1 -3 -2 0 -1 -4 -4 -12 -9 -16 -9 -12 -15 -29 -19 -18 -2 0 0 0
-3 0 -2 -1 0 0 0 0 0 -6 -3 -2 -25 -14 -23 -53 -67 -10 0 0 0 -4 -14 0 -2 0 -10 -11 -6 -8 -7 -18 -10 -14 -13 -19 -8 -22 -8 -3 -1 -4 -12
-2 -1 -1 -5 0 0 0 -1 0 0 -2 -5 -1 -3 0 0 0 -56 -5 0 0 -1 0 -2 -12 -40 -32 -13 -5 -11 -9 -26 -17 -14 -14 -26 -9 -16 -19 -9 -6 -18 -5
-11 -6 0 0 0 -16 -18 -1 -1 0 0 0 0 0 -11 -54 0 0 -25 -4 0 -2 -33 -18 -28 -30 -42 -45 -35 -21 -25 -21 -17 -11 -8 -27 -51 -28 -27 -22 -7 -35 -27
-16 -10 -1 -6 -4 -2 -4 -1 0 0 0 -12 -42 -132 -144 -89 -33 -33 -14 -14 -22 -25 -11 -12 -21 -49 -55 -56 -50 -39 -34 -30 -23 -18 -25 -28 -36 -7 -39 -58 -19 -7 -30
-10 -15 -31 0 0 -2 -1 -2 -51 -76 -68 -114 -59 0 -9 -48 -40 -25 -23 -16 -12 -11 -17 -28 -39 -53 -62 -55 -56 -64 -53 -33 -25 -59 -77 -58 -59 -30 -10 -33 -32 -45 -18
-94 -53 -1 -1 -3 -5 0 0 -26 -117 -96 -71 -1 0 -35 -14 -8 -22 -45 -39 -30 -30 -34 -50 -59 -76 -94 -71 -68 -79 -63 -55 -35 -65 -96 -103 -97 -92 -4 -16 -38 -97 -114
-88 -35 -6 -16 -2 -5 -16 -7 -22 -72 -95 -55 -6 -15 -26 -68 -112 -89 -71 -65 -53 -53 -60 -58 -57 -57 -62 -58 -60 -57 -49 -44 -47 -97 -109 -160 -258 -116 -22 -24 -38 -77 -190
-68 -55 -56 -23 -4 -8 -12 -7 0 -72 -110 -104 -64 -58 -52 -46 -49 -55 -69 -62 -50 -38 -37 -50 -53 -46 -47 -51 -49 -38 -31 -28 -92 -114 -286 -208 -129 -103 -55 -43 -48 -61 -88
-60 -73 -75 -56 -41 -47 -43 -24 -23 -48 -62 -60 -77 -94 -83 -77 -75 -81 -78 -77 -56 -38 -38 -39 -35 -47 -55 -45 -52 -31 -30 -50 -95 -102 -170 -128 -89 -71 -26 -32 -35 -50 -47
-78 -74 -97 -130 -105 -93 -88 -84 -104 -80 -66 -54 -73 -55 -63 -57 -66 -68 -59 -37 -30 -26 -26 -31 -33 -38 -43 -49 -49 -47 -49 -46 -43 -58 -110 -156 -10 -39 -38 -14 -39 -34 -29
-88 -74 -77 -89 -98 -114 -182 -167 -190 -122 -90 -66 -58 -58 -68 -62 -60 -51 -64 -145 -57 -39 -37 -44 -43 -58 -52 -56 -47 -46 -41 -34 -47 -63 -56 -66 -82 -30 -51 -33 -24 -33 -35
-97 -80 -70 -78 -90 -129 -161 -217 -175 -120 -85 -68 -50 -43 -41 -60 -45 -45 -60 -58 -44 -47 -40 -45 -49 -53 -69 -74 -63 -57 -59 -38 -60 -60 -71 -58 -46 -49 -52 -19 -17 -28 -28
-108 -106 -70 -77 -74 -104 -165 -142 -90 -74 -59 -60 -54 -45 -38 -40 -47 -38 -51 -37 -32 -43 -41 -41 -73 -81 -54 -53 -75 -80 -62 -12 0 0 -65 -25 -20 -33 -32 -16 -18 -20 -22
-106 -108 -88 -94 -77 -80 -112 -94 -43 -75 -48 -49 -40 -53 -52 -38 -35 -41 -26 -45 -36 -40 -45 -85 -67 -49 -69 -98 -104 -110 -90 0 0 0 -56 -75 -20 -28 -26 -27 -17 -17 -12
-125 -107 -104 -94 -74 -70 -63 -32 -25 -43 -56 -34 -38 -54 -45 -41 -42 -36 -30 -36 -34 -56 -70 -48 -58 -91 -122 -133 -145 -133 0 0 0 0 0 0 0 -127 -36 -22 -14 -12 -10
-127 -117 -83 -76 -96 -68 -67 -47 -28 -32 -40 -56 -178 -73 -51 -29 -42 -35 -42 -32 -38 -80 -73 -85 -92 -100 -123 -179 -164 0 0 0 0 0 0 0 -30 -33 -86 -27 -23 -20 -15
-152 -120 -111 -102 -101 -113 -109 -81 -53 -38 -52 -48 -75 -68 -49 -36 -41 -27 -43 -33 -96 -78 -59 -63 -65 -67 -97 -157 -14 0 0 0 -211 -99 0 0 -92 -36 0 -91 -82 -26 -21
-175 -145 -112 -115 -108 -119 -140 -125 -82 -83 -98 -88 -110 -103 -45 -42 -31 -31 -39 -41 -61 -71 -41 -52 -52 -66 -99 -171 0 0 0 -66 0 0 0 0 0 0 0 0 -154 -35 -21
-195 -191 -180 -165 -134 -137 -166 -186 -269 -206 -158 -150 -166 -132 -50 -47 -29 -43 -48 -61 -49 -59 -58 -62 -50 -58 -73 -200 0 0 0 0 0 0 0 0 0 0 0 0 0 0 0
-272 -191 -206 -188 -158 -149 -155 -171 -216 -237 -178 -179 -171 -126 -74 -50 -34 -76 -68 -73 -68 -72 -36 -38 -52 -72 -80 -226 0 0 0 0 0 0 0 0 0 0 0 0 0 0 0
-254 -238 -184 -190 -184 -183 -201 -171 -152 -146 -152 -162 -131 -130 -127 -89 -76 -70 -52 -76 -94 -102 -71 -47 -50 -57 -46 -176 0 0 -144 -151 -161 0 0 0 0 0 0 0 0 0 0
-224 -244 -194 -171 -157 -192 -188 -181 -161 -144 -155 -201 -177 -127 -115 -114 -77 -85 -76 -81 -89 -66 -41 -29 -41 -66 -111 -91 0 -187 -235 0 -68 0 0 0 0 0 0 0 0 0 0
-209 -235 -223 -191 -136 -148 -167 -168 -169 -153 -170 -151 -148 -153 -160 -126 -105 -104 -94 -84 -73 -65 -36 -37 -47 -79 -160 -167 -259 -215 -15 -134 0 0 0 0 0 0 0 0 0 0 0
-235 -208 -219 -220 -201 -167 -169 -180 -190 -194 -217 -230 -201 -190 -188 -188 -125 -127 -102 -97 -76 -60 -53 -53 -64 -90 -116 -211 -236 -181 -121 -159 0 0 0 0 0 0 0 0 0 0 0
Wind_Speed
25 30 10 13 12 12 11 10 8 9 11 12 14 16 16 16 19 19 22 23 22 24 23 23 22 24 24 25 23 22 24 25 25 25 25 24 23 23 23 22 22 22 22
32 31 11 12 11 11 12 12 11 10 12 13 15 15 16 18 17 16 22 23 22 22 23 23 23 24 24 24 22 21 24 25 25 25 24 24 23 22 21 21 21 22 22
33 26 2 8 9 10 9 11 12 12 13 14 15 15 18 18 19 19 19 22 22 22 23 23 22 24 20 16 20 17 23 21 21 22 22 21 21 22 22 21 21 21 21
34 22 12 7 8 8 8 9 10 12 13 17 17 17 19 19 22 21 21 21 21 21 21 22 22 22 21 18 13 20 18 18 18 18 19 19 19 20 20 20 20 20 20
32 29 16 3 3 3 5 9 10 10 15 19 19 18 19 19 21 21 21 21 21 21 21 21 19 18 18 16 14 15 18 16 16 16 15 16 17 18 19 19 19 19 19
32 31 24 13 3 3 8 8 11 15 19 20 20 23 23 22 23 22 22 22 21 20 18 17 17 17 18 13 12 14 16 14 12 12 12 15 15 16 17 18 17 17 17
32 31 30 28 13 9 13 15 19 21 23 25 25 24 26 26 25 25 24 23 22 21 20 19 18 16 16 15 14 14 13 12 12 12 18 14 15 15 15 15 16 15 15
30 26 30 20 23 19 14 20 23 25 25 26 27 26 26 25 25 24 23 22 21 20 19 17 16 15 14 12 17 16 16 13 17 15 14 12 13 13 13 13 13 13 13
27 25 25 29 26 21 24 27 27 26 27 27 26 26 25 24 23 22 21 20 19 19 18 16 15 14 13 13 14 16 17 18 18 18 18 13 8 11 10 11 11 11 11
27 26 28 29 28 26 27 27 27 27 27 26 25 23 22 22 21 20 20 18 17 16 15 15 13 13 13 11 12 15 16 14 14 17 16 14 11 10 11 9 9 9 9
25 25 28 29 27 27 28 27 27 27 26 25 24 24 22 21 19 19 18 17 15 15 14 13 13 13 12 11 10 12 13 13 12 9 11 12 13 11 12 8 8 7 7
29 29 29 29 28 28 28 27 27 26 24 24 23 22 20 19 18 17 15 14 15 14 14 13 12 13 13 11 9 10 10 11 11 9 9 9 11 10 15 10 8 5 5
29 29 30 29 29 29 28 27 26 25 23 23 21 20 19 18 17 16 15 14 14 14 15 14 14 15 13 11 9 8 8 8 10 8 8 8 8 9 8 11 7 7 5
31 30 30 30 30 30 28 27 26 24 23 22 21 20 19 17 17 17 16 14 14 16 16 16 15 13 11 9 8 7 7 7 10 11 7 7 7 8 6 5 4 3 3
31 31 31 31 31 30 28 26 25 24 23 22 20 21 18 17 18 17 16 15 15 18 17 17 16 14 12 9 9 11 9 8 10 14 12 9 7 5 5 3 3 3 3
30 31 32 31 31 29 28 26 24 24 25 23 21 20 18 17 18 17 16 15 18 17 16 15 14 12 17 18 17 21 17 13 16 16 15 13 10 7 5 4 3 5 6
30 30 32 31 31 29 29 26 25 24 25 23 20 19 17 16 17 17 17 16 15 15 13 15 17 18 19 21 17 17 19 19 15 15 15 16 15 13 12 10 7 8 11
29 30 31 32 31 30 29 27 26 25 23 21 19 18 17 16 18 17 15 13 15 15 16 17 17 20 22 23 24 18 19 17 16 18 18 20 17 16 16 16 14 14 14
29 30 30 31 30 30 29 27 27 26 24 22 18 17 18 18 16 16 15 15 14 14 14 15 15 18 21 23 24 24 27 23 20 21 24 24 21 19 19 18 17 16 17
28 29 30 29 29 28 28 27 27 26 24 23 21 19 18 20 17 17 16 14 13 12 12 11 14 19 19 19 23 23 29 22 24 25 27 24 21 21 22 21 19 17 16
28 29 30 29 28 25 26 25 25 24 23 23 23 22 18 21 20 20 16 14 12 10 9 10 10 12 14 19 23 26 26 21 22 29 27 26 25 26 25 27 25 25 26
29 30 29 29 27 26 24 24 23 24 24 23 23 23 21 20 23 19 15 14 11 9 7 7 8 13 15 19 22 25 27 25 23 31 27 26 26 27 29 30 27 30 30
30 29 29 28 27 26 25 23 24 25 25 25 25 24 22 20 22 17 14 11 10 8 5 5 8 14 17 21 23 23 25 23 29 24 27 27 31 31 31 32 33 35 35
28 28 28 27 27 26 24 25 24 24 24 24 24 22 21 19 17 19 14 10 9 6 3 5 9 13 15 17 20 19 20 20 25 27 25 24 29 29 30 32 34 34 34
27 28 28 27 26 25 25 26 24 24 23 22 23 22 20 15 18 18 14 11 8 4 3 6 8 8 10 16 17 21 22 21 21 24 28 30 29 28 28 30 33 34 32
26 26 26 27 28 26 25 26 25 24 22 22 23 21 17 16 15 16 13 10 6 2 3 4 5 7 10 14 18 18 18 21 25 25 27 29 31 31 32 30 34 34 32
Wind_Direction
172 152 66 63 58 56 55 52 45 41 40 40 42 43 42 41 48 48 55 63 64 77 73 71 60 72 78 81 70 66 76 87 90 92 91 89 87 101 108 110 111 109 103
147 154 69 62 58 53 56 54 47 38 38 35 37 35 37 47 43 36 55 65 62 63 70 72 72 78 78 76 69 65 88 99 97 95 98 98 94 97 116 112 113 114 109
153 170 91 61 57 53 48 48 47 42 40 35 37 39 46 44 46 50 48 71 63 67 70 71 69 83 54 33 50 40 100 126 117 102 96 113 109 97 90 103 107 110 111
135 179 193 63 57 48 41 39 39 39 38 49 48 49 52 49 66 60 63 58 63 62 65 67 73 75 64 40 13 66 142 139 143 131 117 115 119 108 102 102 102 103 109
125 164 190 207 47 33 22 37 40 34 47 59 57 49 51 54 57 60 62 62 61 65 65 68 60 56 50 33 2 177 108 158 140 138 143 136 130 105 103 102 105 102 106
125 153 176 199 225 18 37 35 43 55 64 67 63 72 70 69 75 71 72 72 69 66 53 48 40 38 59 331 274 180 139 157 193 211 210 152 138 107 105 105 104 112 108
129 128 150 155 69 51 59 62 73 80 88 91 91 81 88 96 94 93 93 91 86 84 79 81 64 48 48 294 253 204 199 213 185 216 304 127 120 125 109 106 106 93 104
121 110 147 92 97 82 62 81 89 97 94 97 103 108 113 115 117 116 115 113 113 122 129 134 126 120 132 215 280 264 276 226 311 263 39 94 107 127 120 100 102 104 98
114 109 110 124 113 93 100 114 112 104 108 119 124 124 127 130 131 133 131 131 129 131 129 143 132 132 135 162 202 259 324 342 322 32 38 47 61 105 117 108 98 105 94
118 116 124 135 127 117 129 125 124 121 124 129 133 143 146 138 139 134 129 128 128 131 134 132 136 136 139 154 198 237 238 75 54 25 20 9 130 128 140 108 97 102 100
120 119 130 134 130 131 141 140 134 130 132 135 142 139 140 139 138 138 140 132 135 137 144 145 144 139 145 146 156 192 202 146 123 111 89 122 154 146 163 108 101 110 120
133 137 138 140 138 143 151 147 143 146 145 144 147 146 147 148 148 141 142 146 140 140 145 144 143 140 134 143 156 171 183 146 145 158 130 136 134 124 198 171 126 117 120
139 142 148 146 147 149 152 153 151 156 158 159 155 148 150 146 150 144 141 145 144 143 137 134 136 131 130 131 143 157 154 156 108 134 148 151 140 133 151 182 131 143 128
150 153 153 152 154 157 159 160 164 166 162 157 154 150 135 145 145 144 142 142 145 135 130 126 128 133 132 137 139 175 155 127 106 82 119 138 156 150 166 154 132 99 102
155 158 157 157 159 163 168 171 177 176 172 165 157 147 139 143 144 133 137 146 145 126 125 119 120 114 112 122 122 94 116 109 86 59 67 82 89 115 155 145 122 68 58
157 161 160 162 163 172 176 180 183 180 176 172 163 151 147 143 138 130 136 147 135 132 129 127 120 117 82 67 66 49 59 68 60 56 53 56 66 73 75 81 62 30 14
163 162 163 164 162 160 169 178 172 170 164 159 162 158 150 150 145 132 139 150 156 154 144 114 94 72 54 49 55 53 46 43 49 50 46 43 41 37 29 31 38 18 4
162 163 165 168 169 170 173 182 187 190 181 161 154 160 161 161 145 136 129 129 123 95 88 79 72 47 35 34 33 43 35 36 39 31 30 25 27 25 23 21 22 14 7
162 162 163 167 169 174 176 175 181 190 188 185 172 170 171 171 148 133 124 115 95 82 77 58 52 40 30 28 29 25 10 16 23 21 15 16 20 23 23 16 11 15 8
164 165 165 168 170 173 177 175 184 191 192 192 191 189 186 170 152 149 150 146 115 114 106 72 42 19 28 31 25 26 9 24 21 15 6 9 22 17 14 13 12 12 8
166 167 169 170 172 167 168 169 177 182 186 193 196 194 182 169 168 165 155 153 138 128 119 105 84 59 46 30 21 17 17 27 17 6 6 5 8 4 8 2 3 358 354
166 169 171 174 172 171 169 170 175 180 190 193 195 191 184 174 184 173 161 160 161 151 118 101 73 44 36 25 20 15 13 13 13 355 2 3 360 358 353 351 355 348 348
173 173 174 175 174 174 172 170 180 187 198 200 195 191 183 184 183 171 164 170 173 161 132 69 40 23 18 13 9 11 8 10 360 7 359 357 349 349 349 346 342 339 339
174 175 175 174 175 175 172 175 178 181 184 185 184 182 185 184 174 176 173 176 175 162 91 38 25 14 13 10 12 17 13 7 359 360 2 359 355 355 353 350 345 342 340
172 174 174 174 174 174 175 178 179 181 182 182 185 188 190 177 175 179 184 183 175 147 46 19 17 27 25 8 11 5 5 5 3 356 352 350 353 356 357 354 349 345 343
172 171 172 174 178 176 175 178 180 181 181 182 186 187 181 178 175 188 190 189 180 124 63 48 33 26 23 11 5 4 1 359 353 354 352 349 347 350 351 353 348 345 343